Time,TemperatureF,DewpointF,PressureIn,WindDirection,WindDirectionDegrees,WindSpeedMPH,WindSpeedGustMPH,Humidity,HourlyPrecipIn,Conditions,Clouds,dailyrainin,SoftwareType,DateUTC
2013-01-01 00:02:00,30.0,30.0,-100.00,ESE,105,0.0,0.0,97,0.00,,,0.17,,2013-01-01 09:02:00,
2013-01-01 00:11:00,30.0,30.0,-100.00,ESE,105,0.0,0.0,97,0.00,,,0.17,,2013-01-01 09:11:00,
2013-01-01 00:22:00,30.0,29.0,-100.00,North,5,0.0,0.0,97,0.00,,,0.15,,2013-01-01 09:22:00,
2013-01-01 00:32:00,30.0,29.0,-100.00,North,5,0.0,0.0,97,0.00,,,0.15,,2013-01-01 09:32:00,
2013-01-01 00:42:00,30.0,29.0,-100.00,North,5,0.0,0.0,97,0.00,,,0.15,,2013-01-01 09:42:00,
2013-01-01 00:52:00,30.0,29.0,-100.00,West,260,1.0,2.0,96,0.00,,,0.14,,2013-01-01 09:52:00,
2013-01-01 01:02:00,30.0,29.0,-100.00,West,260,1.0,2.0,96,0.00,,,0.14,,2013-01-01 10:02:00,
2013-01-01 01:12:00,30.0,29.0,-100.00,West,260,1.0,2.0,96,0.00,,,0.14,,2013-01-01 10:12:00,
2013-01-01 01:22:00,31.0,30.0,-100.00,ESE,110,1.0,3.0,96,0.00,,,0.12,,2013-01-01 10:22:00,
2013-01-01 01:32:00,31.0,30.0,-100.00,ESE,110,1.0,3.0,96,0.00,,,0.12,,2013-01-01 10:32:00,
2013-01-01 01:42:00,31.0,30.0,-100.00,ESE,110,1.0,3.0,96,0.00,,,0.12,,2013-01-01 10:42:00,
2013-01-01 01:52:00,31.0,30.0,-100.00,NNW,345,0.0,1.0,96,0.00,,,0.11,,2013-01-01 10:52:00,
2013-01-01 02:02:00,31.0,30.0,-100.00,NNW,345,0.0,1.0,96,0.00,,,0.11,,2013-01-01 11:02:00,
2013-01-01 02:12:00,31.0,30.0,-100.00,NNW,345,0.0,1.0,96,0.00,,,0.11,,2013-01-01 11:12:00,
2013-01-01 02:22:00,31.0,30.0,-100.00,WNW,295,0.0,0.0,97,0.00,,,0.07,,2013-01-01 11:22:00,
2013-01-01 02:32:00,31.0,30.0,-100.00,WNW,295,0.0,0.0,97,0.00,,,0.07,,2013-01-01 11:32:00,
2013-01-01 02:42:00,31.0,30.0,-100.00,WNW,295,0.0,0.0,97,0.00,,,0.07,,2013-01-01 11:42:00,
2013-01-01 02:52:00,31.0,30.0,-100.00,South,170,1.0,2.0,97,0.00,,,0.05,,2013-01-01 11:52:00,
2013-01-01 03:02:00,31.0,30.0,-100.00,South,170,1.0,2.0,97,0.00,,,0.05,,2013-01-01 12:02:00,
2013-01-01 03:12:00,31.0,30.0,-100.00,South,170,1.0,2.0,97,0.00,,,0.05,,2013-01-01 12:12:00,
2013-01-01 03:22:00,31.0,30.0,-100.00,North,355,1.0,2.0,97,0.00,,,0.04,,2013-01-01 12:22:00,
2013-01-01 03:32:00,31.0,30.0,-100.00,North,355,1.0,2.0,97,0.00,,,0.04,,2013-01-01 12:32:00,
2013-01-01 03:42:00,31.0,30.0,-100.00,North,355,1.0,2.0,97,0.00,,,0.04,,2013-01-01 12:42:00,
2013-01-01 03:52:00,31.0,30.0,-100.00,SSW,195,1.0,4.0,97,0.00,,,0.02,,2013-01-01 12:52:00,
2013-01-01 04:02:00,31.0,30.0,-100.00,SSW,195,1.0,4.0,97,0.00,,,0.02,,2013-01-01 13:02:00,
2013-01-01 04:12:00,31.0,30.0,-100.00,SSW,195,1.0,4.0,97,0.00,,,0.02,,2013-01-01 13:12:00,
2013-01-01 04:22:00,31.0,30.0,-100.00,North,0,0.0,2.0,97,0.00,,,0.00,,2013-01-01 13:22:00,
2013-01-01 04:32:00,31.0,30.0,-100.00,North,0,0.0,2.0,97,0.00,,,0.00,,2013-01-01 13:32:00,
2013-01-01 04:42:00,31.0,30.0,-100.00,North,0,0.0,2.0,97,0.00,,,0.00,,2013-01-01 13:42:00,
2013-01-01 04:52:00,30.0,29.0,-100.00,WSW,250,0.0,0.0,97,0.00,,,0.00,,2013-01-01 13:52:00,
2013-01-01 05:02:00,30.0,29.0,-100.00,WSW,250,0.0,0.0,97,0.00,,,0.00,,2013-01-01 14:02:00,
2013-01-01 05:12:00,30.0,29.0,-100.00,WSW,250,0.0,0.0,97,0.00,,,0.00,,2013-01-01 14:12:00,
2013-01-01 05:22:00,30.0,29.0,-100.00,North,0,0.0,4.0,98,0.00,,,0.00,,2013-01-01 14:22:00,
2013-01-01 05:32:00,30.0,29.0,-100.00,North,0,0.0,4.0,98,0.00,,,0.00,,2013-01-01 14:32:00,
2013-01-01 05:42:00,30.0,29.0,-100.00,North,0,0.0,4.0,98,0.00,,,0.00,,2013-01-01 14:42:00,
2013-01-01 05:53:00,30.0,29.0,-100.00,NNW,345,0.0,2.0,98,0.00,,,0.00,,2013-01-01 14:53:00,
2013-01-01 06:02:00,30.0,29.0,-100.00,NNW,345,0.0,2.0,98,0.00,,,0.00,,2013-01-01 15:02:00,
2013-01-01 06:12:00,30.0,29.0,-100.00,NNW,345,0.0,2.0,98,0.00,,,0.00,,2013-01-01 15:12:00,
2013-01-01 06:22:00,29.0,29.0,-100.00,West,260,1.0,3.0,98,0.00,,,0.00,,2013-01-01 15:22:00,
2013-01-01 06:33:00,29.0,29.0,-100.00,West,260,1.0,3.0,98,0.00,,,0.00,,2013-01-01 15:33:00,
2013-01-01 06:42:00,29.0,29.0,-100.00,West,260,1.0,3.0,98,0.00,,,0.00,,2013-01-01 15:42:00,
2013-01-01 06:52:00,30.0,29.0,-100.00,North,0,2.0,3.0,98,0.00,,,0.00,,2013-01-01 15:52:00,
2013-01-01 07:02:00,30.0,29.0,-100.00,North,0,2.0,3.0,98,0.00,,,0.00,,2013-01-01 16:02:00,
2013-01-01 07:12:00,30.0,29.0,-100.00,North,0,2.0,3.0,98,0.00,,,0.00,,2013-01-01 16:12:00,
2013-01-01 07:22:00,30.0,29.0,-100.00,West,260,0.0,1.0,98,0.00,,,0.00,,2013-01-01 16:22:00,
2013-01-01 07:32:00,30.0,29.0,-100.00,West,260,0.0,1.0,98,0.00,,,0.00,,2013-01-01 16:32:00,
2013-01-01 07:42:00,30.0,29.0,-100.00,West,260,0.0,1.0,98,0.00,,,0.00,,2013-01-01 16:42:00,
2013-01-01 07:52:00,30.0,30.0,-100.00,NNW,340,0.0,1.0,98,0.00,,,0.00,,2013-01-01 16:52:00,
2013-01-01 08:02:00,30.0,30.0,-100.00,NNW,340,0.0,1.0,98,0.00,,,0.00,,2013-01-01 17:02:00,
2013-01-01 08:12:00,30.0,30.0,-100.00,NNW,340,0.0,1.0,98,0.00,,,0.00,,2013-01-01 17:12:00,
2013-01-01 08:22:00,31.0,30.0,-100.00,NNW,340,1.0,2.0,98,0.00,,,0.00,,2013-01-01 17:22:00,
2013-01-01 08:33:00,31.0,30.0,-100.00,NNW,340,1.0,2.0,98,0.00,,,0.00,,2013-01-01 17:33:00,
2013-01-01 08:42:00,31.0,30.0,-100.00,NNW,340,1.0,2.0,98,0.00,,,0.00,,2013-01-01 17:42:00,
2013-01-01 08:52:00,32.0,31.0,-100.00,NNW,345,1.0,4.0,98,0.02,,,0.02,,2013-01-01 17:52:00,
2013-01-01 09:03:00,32.0,31.0,-100.00,NNW,345,1.0,4.0,98,0.02,,,0.02,,2013-01-01 18:03:00,
2013-01-01 09:12:00,32.0,31.0,-100.00,NNW,345,1.0,4.0,98,0.02,,,0.02,,2013-01-01 18:12:00,
2013-01-01 09:22:00,32.0,32.0,-100.00,WNW,300,0.0,0.0,98,0.04,,,0.04,,2013-01-01 18:22:00,
2013-01-01 09:33:00,32.0,32.0,-100.00,WNW,300,0.0,0.0,98,0.04,,,0.04,,2013-01-01 18:33:00,
2013-01-01 09:42:00,32.0,32.0,-100.00,WNW,300,0.0,0.0,98,0.04,,,0.04,,2013-01-01 18:42:00,
2013-01-01 09:52:00,32.0,32.0,-100.00,North,0,1.0,3.0,98,0.04,,,0.06,,2013-01-01 18:52:00,
2013-01-01 10:02:00,32.0,32.0,-100.00,North,0,1.0,3.0,98,0.04,,,0.06,,2013-01-01 19:02:00,
2013-01-01 10:12:00,32.0,32.0,-100.00,North,0,1.0,3.0,98,0.04,,,0.06,,2013-01-01 19:12:00,
2013-01-01 10:22:00,32.0,32.0,-100.00,WNW,300,0.0,2.0,98,0.02,,,0.06,,2013-01-01 19:22:00,
2013-01-01 10:32:00,32.0,32.0,-100.00,WNW,300,0.0,2.0,98,0.02,,,0.06,,2013-01-01 19:32:00,
2013-01-01 10:42:00,32.0,32.0,-100.00,WNW,300,0.0,2.0,98,0.02,,,0.06,,2013-01-01 19:42:00,
2013-01-01 10:52:00,32.0,32.0,-100.00,North,0,1.0,1.0,98,0.00,,,0.06,,2013-01-01 19:52:00,
2013-01-01 11:02:00,32.0,32.0,-100.00,North,0,1.0,1.0,98,0.00,,,0.06,,2013-01-01 20:02:00,
2013-01-01 11:12:00,32.0,32.0,-100.00,North,0,1.0,1.0,98,0.00,,,0.06,,2013-01-01 20:12:00,
2013-01-01 11:22:00,32.0,32.0,-100.00,NE,55,2.0,3.0,98,0.00,,,0.06,,2013-01-01 20:22:00,
2013-01-01 11:32:00,32.0,32.0,-100.00,NE,55,2.0,3.0,98,0.00,,,0.06,,2013-01-01 20:32:00,
2013-01-01 11:42:00,32.0,32.0,-100.00,NE,55,2.0,3.0,98,0.00,,,0.06,,2013-01-01 20:42:00,
2013-01-01 11:52:00,33.0,32.0,-100.00,NW,325,0.0,2.0,98,0.00,,,0.06,,2013-01-01 20:52:00,
2013-01-01 12:03:00,33.0,32.0,-100.00,NW,325,0.0,2.0,98,0.00,,,0.06,,2013-01-01 21:03:00,
2013-01-01 12:12:00,33.0,32.0,-100.00,NW,325,0.0,2.0,98,0.00,,,0.06,,2013-01-01 21:12:00,
2013-01-01 12:22:00,33.0,32.0,-100.00,North,0,3.0,4.0,98,0.02,,,0.08,,2013-01-01 21:22:00,
2013-01-01 12:32:00,33.0,32.0,-100.00,North,0,3.0,4.0,98,0.02,,,0.08,,2013-01-01 21:32:00,
2013-01-01 12:42:00,33.0,32.0,-100.00,North,0,3.0,4.0,98,0.02,,,0.08,,2013-01-01 21:42:00,
2013-01-01 12:52:00,33.0,32.0,-100.00,North,0,2.0,5.0,98,0.04,,,0.10,,2013-01-01 21:52:00,
2013-01-01 13:02:00,33.0,32.0,-100.00,North,0,2.0,5.0,98,0.04,,,0.10,,2013-01-01 22:02:00,
2013-01-01 13:12:00,33.0,32.0,-100.00,North,0,2.0,5.0,98,0.04,,,0.10,,2013-01-01 22:12:00,
2013-01-01 13:22:00,33.0,32.0,-100.00,NNW,330,1.0,4.0,98,0.02,,,0.10,,2013-01-01 22:22:00,
2013-01-01 13:32:00,33.0,32.0,-100.00,NNW,330,1.0,4.0,98,0.02,,,0.10,,2013-01-01 22:32:00,
2013-01-01 13:42:00,33.0,32.0,-100.00,NNW,330,1.0,4.0,98,0.02,,,0.10,,2013-01-01 22:42:00,
2013-01-01 13:52:00,33.0,32.0,-100.00,North,0,1.0,5.0,98,0.00,,,0.10,,2013-01-01 22:52:00,
2013-01-01 14:02:00,33.0,32.0,-100.00,North,0,1.0,5.0,98,0.00,,,0.10,,2013-01-01 23:02:00,
2013-01-01 14:12:00,33.0,32.0,-100.00,North,0,1.0,5.0,98,0.00,,,0.10,,2013-01-01 23:12:00,
2013-01-01 14:22:00,33.0,33.0,-100.00,NNE,20,2.0,4.0,98,0.00,,,0.10,,2013-01-01 23:22:00,
2013-01-01 14:32:00,33.0,33.0,-100.00,NNE,20,2.0,4.0,98,0.00,,,0.10,,2013-01-01 23:32:00,
2013-01-01 14:42:00,33.0,33.0,-100.00,NNE,20,2.0,4.0,98,0.00,,,0.10,,2013-01-01 23:42:00,
2013-01-01 14:52:00,33.0,33.0,-100.00,West,275,3.0,9.0,98,0.00,,,0.10,,2013-01-01 23:52:00,
2013-01-01 15:02:00,33.0,33.0,-100.00,West,275,3.0,9.0,98,0.00,,,0.10,,2013-01-02 00:02:00,
2013-01-01 15:12:00,33.0,33.0,-100.00,West,275,3.0,9.0,98,0.00,,,0.10,,2013-01-02 00:12:00,
2013-01-01 15:22:00,34.0,33.0,-100.00,East,95,1.0,6.0,97,0.00,,,0.10,,2013-01-02 00:22:00,
2013-01-01 15:32:00,34.0,33.0,-100.00,East,95,1.0,6.0,97,0.00,,,0.10,,2013-01-02 00:32:00,
2013-01-01 15:42:00,34.0,33.0,-100.00,East,95,1.0,6.0,97,0.00,,,0.10,,2013-01-02 00:42:00,
2013-01-01 15:52:00,35.0,33.0,-100.00,ENE,70,1.0,7.0,93,0.00,,,0.10,,2013-01-02 00:52:00,
2013-01-01 16:02:00,35.0,33.0,-100.00,ENE,70,1.0,7.0,93,0.00,,,0.10,,2013-01-02 01:02:00,
2013-01-01 16:12:00,35.0,33.0,-100.00,ENE,70,1.0,7.0,93,0.00,,,0.10,,2013-01-02 01:12:00,
2013-01-01 16:22:00,40.0,29.0,-100.00,SSE,155,6.0,17.0,66,0.00,,,0.10,,2013-01-02 01:22:00,
2013-01-01 16:32:00,40.0,29.0,-100.00,SSE,155,6.0,17.0,66,0.00,,,0.10,,2013-01-02 01:32:00,
2013-01-01 16:42:00,40.0,29.0,-100.00,SSE,155,6.0,17.0,66,0.00,,,0.10,,2013-01-02 01:42:00,
2013-01-01 16:52:00,40.0,29.0,-100.00,SSE,160,9.0,21.0,65,0.00,,,0.10,,2013-01-02 01:52:00,
2013-01-01 17:02:00,40.0,29.0,-100.00,SSE,160,9.0,21.0,65,0.00,,,0.10,,2013-01-02 02:02:00,
2013-01-01 17:12:00,40.0,29.0,-100.00,SSE,160,9.0,21.0,65,0.00,,,0.10,,2013-01-02 02:12:00,
2013-01-01 17:22:00,40.0,29.0,-100.00,SE,130,11.0,31.0,62,0.00,,,0.10,,2013-01-02 02:22:00,
2013-01-01 17:32:00,40.0,29.0,-100.00,SE,130,11.0,31.0,62,0.00,,,0.10,,2013-01-02 02:32:00,
2013-01-01 17:53:00,39.0,30.0,-100.00,SE,140,9.0,23.0,68,0.00,,,0.10,,2013-01-02 02:53:00,
2013-01-01 18:02:00,39.0,30.0,-100.00,SE,140,9.0,23.0,68,0.00,,,0.10,,2013-01-02 03:02:00,
2013-01-01 18:11:00,39.0,30.0,-100.00,SE,140,9.0,23.0,68,0.00,,,0.10,,2013-01-02 03:11:00,
2013-01-01 18:22:00,39.0,31.0,-100.00,SSE,155,7.0,21.0,72,0.00,,,0.10,,2013-01-02 03:22:00,
2013-01-01 18:32:00,39.0,31.0,-100.00,SSE,155,7.0,21.0,72,0.00,,,0.10,,2013-01-02 03:32:00,
2013-01-01 18:42:00,39.0,31.0,-100.00,SSE,155,7.0,21.0,72,0.00,,,0.10,,2013-01-02 03:42:00,
2013-01-01 18:52:00,39.0,31.0,-100.00,SE,130,9.0,19.0,71,0.00,,,0.10,,2013-01-02 03:52:00,
2013-01-01 19:02:00,39.0,31.0,-100.00,SE,130,9.0,19.0,71,0.00,,,0.10,,2013-01-02 04:02:00,
2013-01-01 19:12:00,39.0,31.0,-100.00,SE,130,9.0,19.0,71,0.00,,,0.10,,2013-01-02 04:12:00,
2013-01-01 19:22:00,39.0,31.0,-100.00,SE,140,7.0,19.0,72,0.00,,,0.10,,2013-01-02 04:22:00,
2013-01-01 19:32:00,39.0,31.0,-100.00,SE,140,7.0,19.0,72,0.00,,,0.10,,2013-01-02 04:32:00,
2013-01-01 19:42:00,39.0,31.0,-100.00,SE,140,7.0,19.0,72,0.00,,,0.10,,2013-01-02 04:42:00,
2013-01-01 19:52:00,39.0,32.0,-100.00,ESE,115,7.0,21.0,77,0.02,,,0.12,,2013-01-02 04:52:00,
2013-01-01 20:03:00,39.0,32.0,-100.00,ESE,115,7.0,21.0,77,0.02,,,0.12,,2013-01-02 05:03:00,
2013-01-01 20:12:00,39.0,32.0,-100.00,ESE,115,7.0,21.0,77,0.02,,,0.12,,2013-01-02 05:12:00,
2013-01-01 20:22:00,38.0,32.0,-100.00,SE,125,3.0,12.0,78,0.02,,,0.12,,2013-01-02 05:22:00,
2013-01-01 20:32:00,38.0,32.0,-100.00,SE,125,3.0,12.0,78,0.02,,,0.12,,2013-01-02 05:32:00,
2013-01-01 20:42:00,38.0,32.0,-100.00,SE,125,3.0,12.0,78,0.02,,,0.12,,2013-01-02 05:42:00,
2013-01-01 20:52:00,38.0,33.0,-100.00,ESE,115,9.0,14.0,79,0.00,,,0.12,,2013-01-02 05:52:00,
2013-01-01 21:02:00,38.0,33.0,-100.00,ESE,115,9.0,14.0,79,0.00,,,0.12,,2013-01-02 06:02:00,
2013-01-01 21:12:00,38.0,33.0,-100.00,ESE,115,9.0,14.0,79,0.00,,,0.12,,2013-01-02 06:12:00,
2013-01-01 21:22:00,38.0,32.0,-100.00,ESE,115,4.0,12.0,80,0.00,,,0.12,,2013-01-02 06:22:00,
2013-01-01 21:32:00,38.0,32.0,-100.00,ESE,115,4.0,12.0,80,0.00,,,0.12,,2013-01-02 06:32:00,
2013-01-01 21:42:00,38.0,32.0,-100.00,ESE,115,4.0,12.0,80,0.00,,,0.12,,2013-01-02 06:42:00,
2013-01-01 21:52:00,38.0,33.0,-100.00,ESE,115,4.0,10.0,83,0.00,,,0.12,,2013-01-02 06:52:00,
2013-01-01 22:02:00,38.0,33.0,-100.00,ESE,115,4.0,10.0,83,0.00,,,0.12,,2013-01-02 07:02:00,
2013-01-01 22:12:00,38.0,33.0,-100.00,ESE,115,4.0,10.0,83,0.00,,,0.12,,2013-01-02 07:12:00,
2013-01-01 22:22:00,37.0,33.0,-100.00,SSE,155,4.0,15.0,83,0.00,,,0.12,,2013-01-02 07:22:00,
2013-01-01 22:32:00,37.0,33.0,-100.00,SSE,155,4.0,15.0,83,0.00,,,0.12,,2013-01-02 07:32:00,
2013-01-01 22:42:00,37.0,33.0,-100.00,SSE,155,4.0,15.0,83,0.00,,,0.12,,2013-01-02 07:42:00,
2013-01-01 22:52:00,38.0,33.0,-100.00,East,80,4.0,12.0,82,0.00,,,0.12,,2013-01-02 07:52:00,
2013-01-01 23:02:00,38.0,33.0,-100.00,East,80,4.0,12.0,82,0.00,,,0.12,,2013-01-02 08:02:00,
2013-01-01 23:11:00,38.0,33.0,-100.00,East,80,4.0,12.0,82,0.00,,,0.12,,2013-01-02 08:11:00,
2013-01-01 23:22:00,37.0,33.0,-100.00,WSW,255,1.0,6.0,84,0.00,,,0.12,,2013-01-02 08:22:00,
2013-01-01 23:32:00,37.0,33.0,-100.00,WSW,255,1.0,6.0,84,0.00,,,0.12,,2013-01-02 08:32:00,
2013-01-01 23:53:00,35.0,33.0,-100.00,NNE,25,2.0,4.0,92,0.00,,,0.12,,2013-01-02 08:53:00,